When you browse on this site, cookies collect data to enhance your experience and personalize the content and advertising you see.
Visit our Privacy Policy to learn more. By continuing to use the site, you agree to this use of cookies and data.
  • In Czech Republic
  • List of Countries
  • For 7 days
  • Water Temperature
  • Weather Map
  • Weather Widgets
  • user-avatar
    Login

    Hourly Weather Brisbane

    Today, 21 August, Wednesday

    Time Temperature Precipitation Wind Pressure Humidity
    00:00 +11°C° 0 mm 3 mps 765 mmHg 48%
    01:00 +11°C° 0 mm 3 mps 765 mmHg 51%
    02:00 +11°C° 0 mm 3 mps 764 mmHg 51%
    03:00 +10°C° 0 mm 4 mps 764 mmHg 52%
    04:00 +10°C° 0 mm 3 mps 763 mmHg 54%
    05:00 +10°C° 0 mm 3 mps 763 mmHg 55%
    06:00 +10°C° 0 mm 3 mps 763 mmHg 55%
    07:00 +10°C° 0 mm 4 mps 763 mmHg 56%
    08:00 +13°C° 0 mm 4 mps 763 mmHg 48%
    09:00 +15°C° 0 mm 4 mps 763 mmHg 39%
    10:00 +19°C° 0 mm 4 mps 763 mmHg 29%
    11:00 +21°C° 0 mm 4 mps 762 mmHg 26%
    12:00 +23°C° 0 mm 4 mps 761 mmHg 24%
    13:00 +26°C° 0 mm 4 mps 760 mmHg 21%
    14:00 +26°C° 0 mm 4 mps 760 mmHg 23%
    15:00 +26°C° 0 mm 5 mps 760 mmHg 25%
    16:00 +25°C° 0 mm 5 mps 759 mmHg 27%
    17:00 +23°C° 0 mm 5 mps 760 mmHg 31%
    18:00 +21°C° 0 mm 5 mps 760 mmHg 35%
    19:00 +19°C° 0 mm 6 mps 760 mmHg 39%
    20:00 +17°C° 0 mm 5 mps 761 mmHg 44%
    21:00 +16°C° 0 mm 5 mps 761 mmHg 49%
    22:00 +15°C° 0 mm 4 mps 761 mmHg 53%
    23:00 +14°C° 0 mm 4 mps 761 mmHg 57%

    Tomorrow, 22 August, Thursday

    Time Temperature Precipitation Wind Pressure Humidity
    00:00 +13°C° 0 mm 4 mps 760 mmHg 60%
    01:00 +13°C° 0 mm 4 mps 760 mmHg 63%
    02:00 +12°C° 0 mm 4 mps 760 mmHg 65%
    03:00 +12°C° 0 mm 4 mps 760 mmHg 67%
    04:00 +11°C° 0 mm 4 mps 760 mmHg 68%
    05:00 +11°C° 0 mm 4 mps 760 mmHg 68%
    06:00 +11°C° 0 mm 4 mps 760 mmHg 67%
    07:00 +11°C° 0 mm 4 mps 761 mmHg 66%
    08:00 +14°C° 0 mm 5 mps 760 mmHg 57%
    09:00 +16°C° 0 mm 5 mps 760 mmHg 48%
    10:00 +19°C° 0 mm 5 mps 760 mmHg 39%
    11:00 +21°C° 0 mm 5 mps 759 mmHg 35%
    12:00 +23°C° 0 mm 5 mps 758 mmHg 31%
    13:00 +25°C° 0 mm 5 mps 757 mmHg 26%
    14:00 +25°C° 0 mm 5 mps 757 mmHg 28%
    15:00 +25°C° 0 mm 5 mps 758 mmHg 30%
    16:00 +25°C° 0 mm 5 mps 758 mmHg 33%
    17:00 +22°C° 0 mm 5 mps 758 mmHg 37%
    18:00 +20°C° 0 mm 4 mps 759 mmHg 41%
    19:00 +19°C° 0 mm 3 mps 760 mmHg 45%
    20:00 +18°C° 0 mm 4 mps 761 mmHg 49%
    21:00 +17°C° 0 mm 4 mps 762 mmHg 52%
    22:00 +15°C° 0 mm 4 mps 763 mmHg 55%
    23:00 +14°C° 0 mm 4 mps 763 mmHg 59%

    Day after tomorrow, 23 August, Friday

    Time Temperature Precipitation Wind Pressure Humidity
    00:00 +13°C° 0 mm 4 mps 763 mmHg 63%
    01:00 +13°C° 0 mm 4 mps 764 mmHg 67%
    02:00 +12°C° 0 mm 3 mps 764 mmHg 67%
    03:00 +11°C° 0 mm 3 mps 764 mmHg 68%
    04:00 +10°C° 0 mm 3 mps 764 mmHg 68%
    05:00 +10°C° 0 mm 3 mps 765 mmHg 66%
    06:00 +10°C° 0 mm 3 mps 765 mmHg 65%
    07:00 +10°C° 0 mm 3 mps 766 mmHg 63%
    08:00 +12°C° 0 mm 3 mps 766 mmHg 56%
    09:00 +16°C° 0 mm 3 mps 767 mmHg 48%
    10:00 +18°C° 0 mm 3 mps 767 mmHg 41%
    11:00 +19°C° 0 mm 3 mps 766 mmHg 39%
    12:00 +20°C° 0 mm 3 mps 766 mmHg 37%
    13:00 +22°C° 0 mm 3 mps 765 mmHg 35%
    14:00 +21°C° 0 mm 4 mps 765 mmHg 37%
    15:00 +21°C° 0 mm 4 mps 765 mmHg 40%
    16:00 +20°C° 0 mm 4 mps 765 mmHg 43%
    17:00 +19°C° 0 mm 4 mps 766 mmHg 51%
    18:00 +17°C° 0 mm 4 mps 766 mmHg 59%
    19:00 +16°C° 0 mm 3 mps 767 mmHg 66%
    20:00 +14°C° 0 mm 3 mps 767 mmHg 69%
    21:00 +13°C° 0 mm 3 mps 767 mmHg 73%
    22:00 +14°C° 0 mm 2 mps 767 mmHg 76%
    23:00 +13°C° 0 mm 2 mps 767 mmHg 78%

    24 August, Saturday

    Time Temperature Precipitation Wind Pressure Humidity
    00:00 +13°C° 0 mm 2 mps 767 mmHg 79%
    01:00 +12°C° 0 mm 2 mps 766 mmHg 81%
    02:00 +12°C° 0 mm 2 mps 766 mmHg 82%
    03:00 +10°C° 0 mm 2 mps 766 mmHg 82%
    04:00 +11°C° 0 mm 1 mps 766 mmHg 83%
    05:00 +10°C° 0 mm 2 mps 766 mmHg 81%
    06:00 +10°C° 0 mm 2 mps 767 mmHg 80%
    07:00 +10°C° 0 mm 2 mps 767 mmHg 78%
    08:00 +14°C° 0 mm 2 mps 767 mmHg 69%
    09:00 +17°C° 0 mm 2 mps 767 mmHg 60%
    10:00 +20°C° 0 mm 1 mps 767 mmHg 50%
    11:00 +21°C° 0 mm 1 mps 766 mmHg 47%
    12:00 +22°C° 0 mm 1 mps 765 mmHg 44%
    13:00 +23°C° 0 mm 1 mps 764 mmHg 40%
    14:00 +23°C° 0 mm 2 mps 764 mmHg 41%
    15:00 +23°C° 0 mm 2 mps 763 mmHg 41%
    16:00 +21°C° 0 mm 3 mps 763 mmHg 42%
    17:00 +19°C° 0 mm 3 mps 763 mmHg 50%
    18:00 +18°C° 0 mm 3 mps 764 mmHg 59%
    19:00 +16°C° 0 mm 3 mps 764 mmHg 67%
    20:00 +15°C° 0 mm 2 mps 764 mmHg 71%
    21:00 +14°C° 0 mm 2 mps 764 mmHg 74%
    22:00 +14°C° 0 mm 2 mps 764 mmHg 78%
    23:00 +13°C° 0 mm 2 mps 764 mmHg 79%

    25 August, Sunday

    Time Temperature Precipitation Wind Pressure Humidity
    00:00 +13°C° 0 mm 1 mps 764 mmHg 81%
    01:00 +13°C° 0 mm 1 mps 764 mmHg 82%
    02:00 +12°C° 0 mm 1 mps 764 mmHg 83%
    03:00 +12°C° 0 mm 1 mps 764 mmHg 83%
    04:00 +12°C° 0 mm 1 mps 764 mmHg 84%
    05:00 +12°C° 0 mm 1 mps 764 mmHg 83%
    06:00 +12°C° 0 mm 1 mps 764 mmHg 82%
    07:00 +12°C° 0 mm 1 mps 764 mmHg 81%
    08:00 +15°C° 0 mm 1 mps 764 mmHg 70%
    09:00 +19°C° 0 mm 1 mps 764 mmHg 59%
    10:00 +22°C° 0 mm 1 mps 764 mmHg 48%
    11:00 +24°C° 0 mm 1 mps 763 mmHg 43%
    12:00 +25°C° 0 mm 1 mps 762 mmHg 38%
    13:00 +27°C° 0 mm 1 mps 761 mmHg 33%
    14:00 +26°C° 0 mm 2 mps 761 mmHg 36%
    15:00 +25°C° 0 mm 2 mps 761 mmHg 39%
    16:00 +24°C° 0 mm 2 mps 760 mmHg 42%
    17:00 +23°C° 0 mm 2 mps 761 mmHg 48%
    18:00 +20°C° 0 mm 3 mps 761 mmHg 54%
    19:00 +19°C° 0 mm 3 mps 762 mmHg 61%
    20:00 +18°C° 0 mm 3 mps 762 mmHg 62%
    21:00 +18°C° 0 mm 2 mps 762 mmHg 64%
    22:00 +17°C° 0 mm 2 mps 762 mmHg 66%
    23:00 +17°C° 0 mm 2 mps 762 mmHg 67%

    26 August, Monday

    Time Temperature Precipitation Wind Pressure Humidity
    00:00 +17°C° 0 mm 2 mps 762 mmHg 68%
    01:00 +16°C° 0 mm 1 mps 762 mmHg 69%
    02:00 +16°C° 0 mm 1 mps 762 mmHg 70%
    03:00 +15°C° 0 mm 1 mps 762 mmHg 71%
    04:00 +15°C° 0 mm 1 mps 762 mmHg 73%
    05:00 +15°C° 0 mm 1 mps 762 mmHg 72%
    06:00 +15°C° 0 mm 1 mps 763 mmHg 71%
    07:00 +15°C° 0 mm 1 mps 763 mmHg 70%
    08:00 +18°C° 0 mm 1 mps 763 mmHg 61%
    09:00 +21°C° 0 mm 1 mps 763 mmHg 51%
    10:00 +24°C° 0 mm 1 mps 763 mmHg 42%
    11:00 +25°C° 0 mm 1 mps 763 mmHg 39%
    12:00 +26°C° 0 mm 1 mps 762 mmHg 36%
    13:00 +27°C° 0 mm 2 mps 761 mmHg 33%
    14:00 +25°C° 0 mm 3 mps 761 mmHg 39%
    15:00 +24°C° 0 mm 3 mps 761 mmHg 44%
    16:00 +22°C° 0 mm 4 mps 761 mmHg 49%
    17:00 +21°C° 0 mm 4 mps 762 mmHg 54%
    18:00 +20°C° 0 mm 4 mps 762 mmHg 60%
    19:00 +19°C° 0 mm 4 mps 763 mmHg 65%
    20:00 +18°C° 0.1 mm 4 mps 763 mmHg 67%
    21:00 +18°C° 0.1 mm 3 mps 764 mmHg 69%
    22:00 +18°C° 0.1 mm 3 mps 764 mmHg 71%
    23:00 +17°C° 0.1 mm 3 mps 764 mmHg 74%
    Show more